Regional Weather Roundup
Issued by NWS

Home | Current Version | Previous Version | Graphics & Text | Print | Product List | Glossary On
Versions: 1 2 3 4 5 6 7 8 9 10 11 12 13 14 15 16 17 18 19 20 21 22 23 24 25 26 27
000
ASUS45 KBOI 210010
RWRID

IDAHO REGIONAL WEATHER ROUNDUP
NATIONAL WEATHER SERVICE BOISE ID
600 PM MDT WED SEP 20 2017

NOTE: "FAIR" INDICATES FEW OR NO CLOUDS BELOW 12000 FEET
WITH NO SIGNIFICANT WEATHER AND/OR OBSTRUCTIONS TO VISIBILITY

IDZ012-014-210100-
SOUTHWEST IDAHO


CITY           SKY/WX    TMP DP  RH WIND       PRES   REMARKS
BOISE          PTSUNNY   54  45  71 SE8       29.72F
CALDWELL       CLOUDY    55  49  80 SE10      29.71F
MOUNTAIN HOME  PTSUNNY   54  46  75 N9        29.73S
$$

IDZ016-017-210100-
SOUTHCENTRAL IDAHO


CITY           SKY/WX    TMP DP  RH WIND       PRES   REMARKS
BURLEY         CLOUDY    61  39  44 S8        29.69S
JEROME         CLOUDY    57  42  57 W23G31    29.72R
TWIN FALLS     LGT RAIN  54  42  64 W22G37    29.72R
$$

IDZ019>023-210100-
SOUTHEAST IDAHO


CITY           SKY/WX    TMP DP  RH WIND       PRES   REMARKS
IDAHO FALLS    CLOUDY    60  35  39 SW9       29.71F
POCATELLO      CLOUDY    61  33  35 W17G39    29.72F
REXBURG        CLOUDY    59  33  37 SW13      29.71S
$$

IDZ006-010-011-018-031-032-210100-
CENTRAL IDAHO MOUNTAINS


CITY           SKY/WX    TMP DP  RH WIND       PRES   REMARKS
MCCALL         PTSUNNY   46  35  65 CALM      29.72R
HAILEY         DRIZZLE   50  39  66 S8        29.77S
STANLEY          N/A     37  35  92 N8        29.78R WCI  31
SALMON         CLOUDY    50  39  66 SW15      29.68R
CHALLIS        LGT RAIN  49  39  68 VRB6      29.73R
$$

IDZ002-004-006-007-026-210100-
NORTHERN IDAHO


CITY           SKY/WX    TMP DP  RH WIND       PRES   REMARKS
LEWISTON       LGT RAIN  54  43  66 CALM      29.70R
LOWELL           N/A     49  46  90 CALM      29.74R
COEUR D`ALENE  LGT RAIN  45  40  82 S6        29.68R
MULLAN PASS    LGT SNOW  32  30  92 SW8       29.64R FOG     WCI  25
$$




USA.gov is the U.S. government's official web portal to all federal, state and local government web resources and services.